Seattle, WA
on Tuesday, February 5, 2013

Tuesday
Previous Day Next Day
Daily Summary
 ActualAverageRecord
Temperature
Mean Temperature °F 43°F  
Max Temperature 50°F 49°F 62°F (1987)
Min Temperature 44°F 37°F 14°F (1989)
Degree Days
Heating Degree Days 18 22  
Month to date heating degree days 100 110  
Since 1 July heating degree days 2674 2759  
Cooling Degree Days 0 0  
Month to date cooling degree days 0 0  
Year to date cooling degree days 0 0  
Moisture
Dew Point 40°F   
Average Humidity 79    
Maximum Humidity 92    
Minimum Humidity 66    
Precipitation
Precipitation 0.13 in 0.14 in 0.96 in (1961)
Month to date precipitation 0.23 0.67  
Year to date precipitation 4.39 6.24  
Snow
Snow 0.00 in in 1.70 in (1949)
Month to date snowfall 0.0  
Since 1 July snowfall 0.6  
Snow Depth 0.00 in   
Wind
Wind Speed 11 mph   
Max Wind Speed 22 mph   
Max Gust Speed 26 mph   
Visibility 10 miles   
Events Rain   

Key: T is trace of precipitation, MM is missing value
Source: NWS Daily Summary
Time(PST)TemperatureDew PointHumidity Pressure Visibility Wind DirectionWind SpeedGust SpeedPrecipitationEvents Conditions
12:53 AM 45.0°F 39.9°F 82% 29.92 in 10.0 miles South 8.1 mph - N/A   Mostly Cloudy
1:53 AM 45.0°F 39.9°F 82% 29.92 in 10.0 miles SSE 6.9 mph - N/A   Mostly Cloudy
2:53 AM 45.0°F 39.9°F 82% 29.90 in 10.0 miles SSE 8.1 mph - N/A   Mostly Cloudy
3:53 AM 45.0°F 39.9°F 82% 29.90 in 10.0 miles South 4.6 mph - 0.00 in Rain Light Rain
4:53 AM 46.0°F 39.9°F 79% 29.90 in 10.0 miles SW 10.4 mph 19.6 mph 0.02 in Rain Light Rain
5:53 AM 45.0°F 41.0°F 86% 29.89 in 10.0 miles South 8.1 mph - 0.04 in Rain Light Rain
6:53 AM 44.1°F 41.0°F 89% 29.86 in 9.0 miles SSE 12.7 mph - 0.00 in Rain Light Rain
7:53 AM 45.0°F 41.0°F 86% 29.87 in 10.0 miles South 11.5 mph - 0.01 in   Overcast
8:53 AM 46.0°F 39.9°F 79% 29.89 in 10.0 miles South 9.2 mph - N/A   Mostly Cloudy
9:53 AM 48.0°F 39.9°F 74% 29.89 in 10.0 miles South 10.4 mph - N/A   Mostly Cloudy
10:53 AM 48.9°F 39.9°F 71% 29.90 in 10.0 miles South 10.4 mph - N/A   Mostly Cloudy
11:53 AM 48.9°F 39.9°F 71% 29.90 in 10.0 miles SSW 12.7 mph - 0.00 in   Mostly Cloudy
12:53 PM 48.2°F 41.0°F 76% 29.89 in 10.0 miles SSW 10.4 mph - N/A   Mostly Cloudy
1:18 PM 48.2°F 42.8°F 82% 29.86 in 10.0 miles SSW 17.3 mph 24.2 mph 0.00 in Rain Light Rain
1:33 PM 48.2°F 39.2°F 71% 29.86 in 10.0 miles SSW 17.3 mph 21.9 mph 0.00 in   Mostly Cloudy
1:53 PM 50.0°F 39.9°F 68% 29.88 in 10.0 miles SSW 17.3 mph 23.0 mph 0.00 in   Mostly Cloudy
2:53 PM 50.0°F 39.9°F 68% 29.88 in 10.0 miles SSW 13.8 mph - 0.00 in Rain Light Rain
3:53 PM 48.0°F 42.1°F 80% 29.88 in 10.0 miles SSW 16.1 mph 20.7 mph 0.00 in Rain Light Rain
4:53 PM 46.0°F 41.0°F 83% 29.88 in 10.0 miles SW 9.2 mph - 0.01 in Rain Light Rain
5:21 PM 44.6°F 42.8°F 93% 29.86 in 7.0 miles SW 4.6 mph - 0.04 in Rain Light Rain
5:40 PM 44.6°F 42.8°F 93% 29.86 in 10.0 miles SSW 5.8 mph - 0.04 in Rain Light Rain
5:53 PM 45.0°F 43.0°F 93% 29.89 in 10.0 miles Variable 5.8 mph - 0.04 in Rain Light Rain
6:30 PM 46.4°F 42.8°F 87% 29.87 in 10.0 miles South 8.1 mph - 0.00 in   Overcast
6:53 PM 46.0°F 41.0°F 83% 29.91 in 10.0 miles South 10.4 mph - 0.00 in Rain Light Rain
7:38 PM 44.6°F 39.2°F 81% 29.90 in 10.0 miles South 12.7 mph - 0.01 in   Overcast
7:53 PM 45.0°F 39.9°F 82% 29.92 in 10.0 miles South 13.8 mph - 0.01 in   Overcast
8:40 PM 44.6°F 39.2°F 81% 29.91 in 10.0 miles South 15.0 mph 21.9 mph N/A   Overcast
8:53 PM 45.0°F 39.0°F 80% 29.93 in 10.0 miles South 16.1 mph 24.2 mph N/A   Overcast
9:53 PM 45.0°F 39.0°F 80% 29.95 in 10.0 miles South 13.8 mph 21.9 mph 0.00 in   Overcast
10:53 PM 44.6°F 39.2°F 81% 29.93 in 10.0 miles South 16.1 mph - N/A   Mostly Cloudy
Moon Phase
Feb. 05 Feb. 10 Feb. 17 Feb. 25 Mar. 04
Sunrise:07:29 AM (PST) Moon Rise:03:25 AM (PST)2/5
Sunset:05:17 PM (PST) Moon Set:12:32 PM (PST)2/5

Copyright © 2014 The Weather Underground, Inc.